Zurück zum Katalog

LEGION 3

AktivWissenschaftVLEO
NORAD 60452·PAYLOAD·🇺🇸 United States

Gestartet Aug 15, 2024 von Cape Canaveral Space Force Station

Loading…

Nächste Überflüge (nächste 24 Stunden)

TLE

AktuellSource: Space-Track

Epoche: Sep 14, 2026, 21:19 UTC

1 60452U 24146A   26257.88836630  .00003130  00000-0  17350-3 0  9994
2 60452  45.0008 269.6159 0008171 327.9711  32.0670 15.16028497115638

Verfolge LEGION 3 in Echtzeit mit AllMySat

Download on the App Store